Location: Byszew
(52.1813°N, 19.2693°E)
Time: 01:50:12
(UTC+00:00)

Cosmos 2333 Rocket - Pass Details

Date: 03 March 2021
Orbit: 837 x 864 km, 70.8° (Epoch: 11 April)

Event Time Altitude Azimuth Distance (km) Brightness Sun altitude
Rises 17:07:19 0° 148° (SSE) 3,394 5.0 -7.1°
Reaches altitude 10° 17:11:08 10° 122° (ESE) 2,471 4.1 -7.7°
Maximum altitude 17:13:37 13° 96° (E) 2,263 3.8 -8.1°
Drops below altitude 10° 17:16:08 10° 69° (ENE) 2,487 4.1 -8.4°
Sets 17:19:59 0° 44° (NE) 3,437 5.0 -9.0°
